www.pogodaiklimat.ru

Погода и климат >> Архив погоды >> Аргентина >> Лабоулайе


ПОГОДА в Лабоулайе

  • Прогноз погоды в Лабоулайе
  • Монитор погоды в Лабоулайе

АРХИВ ПОГОДЫ в Лабоулайе

Время (UTC), дата Ветер
(напр.,м/с)
 
Видим.   Явления Облачность Т
(С)
Тd
(С)
f
(%)
Тe
(С)
Тes
(С)
Комфортность P
(гПа)
Po
(гПа)
Тmin
(С)
Tmax
(С)
R
(мм)
R24
(мм)
S
(см)
00 11.06 штиль 0 10 км ясно +9.3 +6.5 83 +9 +9 1017.1 1000.2 +5.2 +19.7
03 11.06 штиль 0 10 км 3/0
[Ac As]
+8.2 +6.3 88 +7 +7 1018.7 1002.1
06 11.06 штиль 0 10 км 9/8 900 м
[St Ac As]
+8.7 +7.2 90 +8 +8 1017.8 1001.4
09 11.06 В 2 10 км 9/9 900 м
[St]
+10.2 +9.0 92 +9 +9 1015.8 999.3
12 11.06 штиль 0 5000 м дымка 10/10 240 м
[St]
+11.9 +10.6 92 +11 +11 1016.0 999.4 +7.4 +11.9
15 11.06 штиль 0 6000 м дымка 10/10 500 м
[St]
+14.1 +12.1 88 +14 +14 1015.0 998.5
18 11.06 В 2 5000 м дымка 10/10 500 м
[St]
+15.5 +12.8 84 +15 +15 1011.8 995.4 0.0
21 11.06 В 2 3000 м слаб. морось 10/10 240 м
[St]
+13.9 +12.6 92 +13 +13 1010.5 994.1
00 12.06 штиль 0 <100 м в посл. час морось {туман} туман 10/10 240 м
[St]
+13.7 +12.4 92 +13 +13 1010.5 994.1 +11.9 +15.5 0.0
03 12.06 СВ 1 <100 м туман 10/10 240 м
[St]
+14.9 +13.7 93 +15 +15 1008.7 992.4
06 12.06 штиль 0 <100 м туман 10/10 240 м
[St]
+15.0 +13.9 93 +15 +15 1007.5 991.3
09 12.06 штиль 0 <100 м туман 10/10 240 м
[St]
+15.0 +13.9 93 +15 +15 1007.6 991.4
12 12.06 штиль 0 500 м туман 10/10 200 м
[]
+14.4 +13.7 96 +14 +14 1009.8 993.4 +13.7 +15.2 0.0
15 12.06 штиль 0 8000 м дымка {туман} 10/10 240 м
[St]
+15.2 +13.1 87 +15 +15 1011.6 995.3
18 12.06 Ю 1 8000 м дымка {туман} 10/10 240 м
[St]
+14.0 +12.2 89 +14 +14 1011.8 995.4
21 12.06 штиль 0 5000 м слаб. морось 10/10 240 м
[St]
+12.8 +11.3 91 +12 +12 1012.0 995.7
00 13.06 штиль 0 8000 м дымка 10/10 240 м
[St]
+12.5 +11.6 94 +12 +12 1012.9 996.5 +12.5 +15.6 0.0
03 13.06 штиль 0 3000 м дымка 10/10 240 м
[St]
+12.5 +11.6 94 +12 +12 1014.5 998.1
06 13.06 штиль 0 4000 м дымка 10/10 240 м
[St]
+12.3 +11.7 96 +12 +12 1013.2 996.9
09 13.06 В 3 4000 м дымка 10/10 240 м
[St]
+12.1 +11.2 94 +10 +10 1010.7 994.4
12 13.06 штиль 0 2000 м слаб. дождь 10/6 150 м
[St As op]
+12.7 +11.8 94 +12 +12 1011.2 994.8 +10.6 +12.7 0.7
15 13.06 ЮЗ 1 400 м слаб. дождь {морось} туман 10/8 90 м
[St As op]
+12.3 +11.7 96 +12 +12 1011.9 995.4
18 13.06 ЮЗ 5 5000 м в посл. час туман {дождь} туман 10/10 90 м
[St]
+12.9 +12.4 97 +11 +11 1010.5 994.1 2
21 13.06 ЮЗ 6 8000 м дымка 10/10 90 м
[St]
+13.1 +11.8 92 +11 +11 1011.7 995.3
00 14.06 ЮЗ 5 5000 м в посл. час дождь туман 10/10 90 м
[St]
+12.9 +11.6 92 +11 +11 1013.8 997.4 +12.3 +13.5 0.2
03 14.06 ЮЗ 1 5000 м в посл. час морось 10/10 90 м
[St]
+12.7 +11.8 94 +13 +13 1015.8 999.4
06 14.06 Ю 1 8000 м дымка 10/10 90 м
[St]
+12.2 +11.3 94 +12 +12 1017.6 1001.2 0.0
09 14.06 Ю 1 8000 м дымка 10/10 90 м
[St]
+9.8 +8.8 93 +9 +9 1018.6 1002.1
12 14.06 Ю 7 3000 м дымка 6/6 240 м
[Sc]
+8.5 +7.7 95 +4 +4 1019.4 1002.8 +8.3 +13.1 2
15 14.06 З 5 10 км 9/6 450 м
[Sc Cs]
+10.0 +6.8 80 +7 +8 1020.0 1003.4
18 14.06 ЮВ 6 12 км 5/5 450 м
[Sc]
+12.5 +6.7 68 +10 +11 1017.1 1000.6
21 14.06 ЮВ 5 12 км 5/5 450 м
[Sc]
+10.6 +7.1 79 +8 +8 1017.2 1000.6
00 15.06 Ю 5 10 км 6/4 450 м
[Sc Ac As]
+8.7 +6.3 85 +5 +5 1020.0 1003.2 +8.2 +12.8
03 15.06 Ю 3 10 км 10/10 270 м
[St]
+9.3 +7.0 86 +7 +7 1020.9 1004.2
06 15.06 ЮВ 3 10 км в посл. час дождь 10/3 270 м
[Sc As op]
+8.7 +7.2 90 +6 +6 1019.8 1003.2 0.2
09 15.06 ЮВ 2 5000 м слаб. дождь 10/0 900 м
[As op]
+8.7 +7.7 93 +7 +7 1020.3 1003.6
12 15.06 Ю 7 6000 м слаб. дождь 10/0 1500 м
[As op]
+7.9 +6.8 93 +3 +3 1022.4 1005.6 +7.9 +9.5 2
15 15.06 Ю 7 10 км {дождь} 10/6 450 м
[St As op]
+8.9 +7.2 89 +5 +5 1023.1 1006.2
18 15.06 Ю 9 10 км {дождь} 10/6 450 м
[St As op]
+8.8 +6.2 84 +4 +4 1022.3 1005.6 0.0
21 15.06 Ю 4 5000 м слаб. морось 10/10 450 м
[St]
+8.5 +7.0 90 +5 +5 1022.9 1006.1
00 16.06 Ю 3 3000 м сильн. морось 10/10 270 м
[St]
+8.6 +6.9 89 +6 +6 1024.3 1007.4 +7.9 +9.3 2
03 16.06 Ю 7 1500 м слаб. дождь {морось} туман 10/4 240 м
[Sc As op]
+8.5 +7.2 92 +4 +4 1024.0 1007.2
06 16.06 ЮЗ 7 1500 м дождь {морось} 10/6 240 м
[Sc As op]
+8.1 +6.8 91 +3 +3 1024.1 1007.3 11
09 16.06 ЮЗ 8 10 км в посл. час дождь 10/6 240 м
[Sc As op]
+8.0 +6.9 93 +3 +3 1022.6 1005.8
12 16.06 Ю 8 10 км {дождь} 10/10 240 м
[St]
+7.9 +5.9 87 +3 +3 1023.1 1006.2 +7.5 +8.6 5
15 16.06 Ю 5 8000 м дымка 10/10 240 м
[St]
+9.2 +5.7 79 +6 +6 1023.5 1006.6
18 16.06 Ю 5 8000 м в посл. час морось 10/10 240 м
[St]
+9.5 +6.7 83 +6 +6 1021.7 1005.0 0.2
21 16.06 Ю 4 5000 м дымка 10/10 240 м
[St]
+9.7 +8.3 91 +7 +7 1020.5 1003.7
00 17.06 Ю 3 5000 м слаб. морось 10/10 240 м
[St]
+9.0 +8.6 97 +6 +6 1021.1 1004.2 +7.9 +10.0 0.0
03 17.06 Ю 5 4000 м слаб. морось 10/10 240 м
[St]
+8.8 +8.0 95 +5 +5 1021.4 1004.6
06 17.06 штиль 0 8000 м дымка 10/10 450 м
[St]
+8.7 +5.4 80 +8 +8 1020.3 1003.6 0.2
09 17.06 штиль 0 8000 м дымка 10/10 450 м
[St]
+8.7 +7.2 90 +8 +8 1018.4 1001.7
12 17.06 З 3 10 км 9/4 500 м
[Sc As op]
+8.3 +6.4 88 +6 +6 1019.7 1003.0 +8.3 +9.0 0.4
15 17.06 З 3 10 км 8/4 900 м
[Sc Ac As]
+10.9 +6.9 76 +9 +10 1019.7 1003.0
18 17.06 З 4 12 км 8/4 900 м
[Sc Ac As]
+14.1 +6.0 58 +13 +14 1017.1 1000.5
21 17.06 штиль 0 10 км 8/8 900 м
[Sc]
+12.7 +7.2 69 +12 +12 1015.9 999.3

 

Местоположение метеостанции Лабоулайе (Аргентина): широта -34.13 долгота -63.36 высота над уровнем моря 137 м.

В архиве по умолчанию представлена погода в Лабоулайе за последнюю неделю. Архивные данные за месяц целиком и за предыдущие месяцы, начиная с января 2011 года, Вы можете получить, выбрав интересующий диапазон дат из раскрывающегося списка и нажав кнопку "Ввод!".


*Определитесь, кто Вы:
робот инопланетянин человек

Внимание! Время в таблицах - всемирное. Для получения местного времени необходимо прибавить поправку, которая равна -3 ч.

Смотрите также архив погоды в соседних городах и на ближайших метеорологических станциях:

Погода в Рио-Куарто (Аргентина) (143 км)
Погода в Хенераль Пико (Аргентина) (178 км)
Погода в Вилья Рейнольдс (Аргентина) (192 км)
Погода в Маркос Хуарес (Аргентина) (195 км)
Погода в Хунине (Аргентина) (230 км)
Погода в Росарио (Аргентина) (275 км)
Погода в Пиларе (Аргентина) (279 км)
Погода в Санкт-Розе (Аргентина) (282 км)
Погода в Сан-Луисе (Аргентина) (293 км)
Погода в Вилла Долорес (Аргентина) (293 км)

Пояснения к столбцам:

Ветер - указаны скорость ветра в м/с - средняя за 10 мин, порывы в срок и между сроками (в фигурных скобках) и направление, откуда дует ветер: С - северный, СВ - северо-восточный, В - восточный, ЮВ - юго-восточный, Ю - южный, ЮЗ - юго-западный, З - западный, СЗ - северо-западный.
Видимость - горизонтальная дальность видимости в метрах или километрах. При видимости от 1 до 10 км при отсутствии осадков обычно наблюдается дымка, при ухудшении видимости до 1 км и менее - туман. В сухую погоду видимость может ухудшаться дымом, пылью или мглою.
Явления - указаны атмосферные явления, наблюдавшиеся в срок или в последний час перед сроком; фигурными скобками обозначены явления, наблюдавшиеся между сроками (за 1-3 часа до срока); квадратными скобками обозначены град или гололедные отложения с указанием их диаметра в мм.
Облачность - указаны через наклонную черту общая и нижняя облачность в баллах и высота нижней границы облаков в метрах; квадратными скобками обозначены формы облаков: Ci - перистые, Cs - перисто-слоистые, Cc - перисто-кучевые, Ac - высококучевые, As - высокослоистые, Sc - слоисто-кучевые, Ns - слоисто-дождевые, Cu - кучевые, Cb - кучево-дождевые. Подробнее классификацию облаков см. в Атласе облаков (PDF).
T - Температура воздуха - температура, измеренная на высоте 2 м над землей.
Td - Температура точки росы - температура, при понижении до которой содержащийся в воздухе водяной пар достигнет насыщения.
f - Относительная влажность воздуха - влажноcть воздуха, измеренная на высоте 2 м над землей.
Te - Эффективная температура - температура, которую ощущает одетый по сезону человек в тени. Характеристика душности погоды. При расчете учитывается влияние влажности воздуха и скорости ветра на теплоощущения человека.
Tes - Эффективная температура на солнце - температура, которую ощущает человек, с поправкой на солнечный нагрев. Характеристика знойности погоды. Зависит от высоты солнца над горизонтом, облачности и скорости ветра. Ночью, в пасмурную погоду, а также при ветре 12 м/с и более поправка равна нулю.
P - Атмосферное давление - приведенное к уровню моря атмосферное давление.
Po - Атмосферное давление - измеренное на уровне метеостанции атмосферное давление.
Tmin - Минимальная температура - минимум температуры воздуха на высоте 2 м над землей.
Tmax - Максимальная температура - максимум температуры воздуха на высоте 2 м над землей.
R - Количество осадков - Количество выпавших осадков за период времени, мм. При наведении курсора мыши на число - период времени, за который выпало указанное количество осадков.
R24 - Количество осадков - Количество выпавших осадков за 24 часа, мм.
S - Снежный покров - Высота снежного покрова, см. При наведении курсора мыши на число - состояние снежного покрова и степень покрытия местности в баллах.